User: anonymous   Login
Location: �perlecques
(50.8057°N, 2.1521°E)
Time: 18:58:02
(UTC+00:00)
Language:

SR - Orbit

View from above orbital plane
View from above orbital plane
View from above satellite
View from above satellite

Ground track
Ground track

The orbit data is extracted from the following two-line orbital elements,

1 00046U 60007B   21207.56395076  .00000110  00000-0  44567-4 0  9998
2 00046  66.6906  34.4847 0211717 191.9565 167.6476 14.49418563197672
Epoch (UTC): 26 July 2021 13:32:05
Eccentricity: 0.0211717
inclination: 66.6906°
perigee height: 577 km
apogee height: 878 km
right ascension of ascending node: 34.4847°
argument of perigee: 191.9565°
revolutions per day: 14.49418563
mean anomaly at epoch: 167.6476°
orbit number at epoch: 19767

The dashed part of the orbit path shows where the satellite is in the earth's shadow,  

DLR